Location: McKinney
(33.1972°N, 96.6398°W)
Time: 00:42:16
(UTC-05:00)

ISS - Visible Passes

Search period start: 26 April 2019 00:00
Search period end: 06 May 2019 00:00
Orbit: 408 x 410 km, 51.6° (Epoch: 26 April)

Date Brightness Start Highest point End Pass type
(mag) Time Alt. Az. Time Alt. Az. Time Alt. Az.
26 Apr -3.5 06:12:49 10° SW 06:16:05 66° SE 06:19:22 10° NE visible
27 Apr -2.2 05:23:40 18° S 05:25:22 29° SE 05:28:18 10° ENE visible
28 Apr -1.1 04:35:09 14° ESE 04:35:09 14° ESE 04:36:37 10° E visible
28 Apr -3.0 06:07:54 10° WSW 06:11:01 38° NW 06:14:08 10° NNE visible
29 Apr -3.9 05:19:16 45° SW 05:20:10 81° NW 05:23:29 10° NE visible
30 Apr -2.0 04:30:31 30° E 04:30:31 30° E 04:32:33 10° ENE visible
30 Apr -1.6 06:03:55 10° WNW 06:06:07 16° NNW 06:08:18 10° N visible
01 May -2.5 05:14:26 25° WNW 05:15:06 27° NW 05:18:00 10° NNE visible
02 May -1.9 04:25:32 29° NNE 04:25:32 29° NNE 04:27:25 10° NE visible
03 May -0.2 03:36:33 10° NE 03:36:33 10° NE 03:36:35 10° NE visible
03 May -1.3 05:09:17 12° NW 05:10:11 13° NNW 05:11:47 10° N visible
04 May -1.3 04:20:15 17° N 04:20:15 17° N 04:21:40 10° NNE visible
05 May -0.2 03:31:08 10° NNE 03:31:08 10° NNE 03:31:11 10° NNE visible
